SCP
0 0 0 0 0 0 0 0 0 0 0 0 0 0 0 0 0 0 0 0 0 0 0 0 0 0 0 0 0 0 0 0 0 0 0 0 0 0 0 0 0 0 0 0
0 0 0 0 0 0 0 0 0 0 0 0 0 0 0 0 0 0 0 0 0 0 0 0 0 0 0 0 0 0 0 0 0 0 0 0 0 0 0 0 0 0 0 0
0 0 0 0 0 0 0 0 0 0 0 0 0 0 0 0 0 0 0 0 0 0 0 0 0 0 0 0 0 0 0 0 0 0 0 0 0 0 0 0 0 0 0 0
0 0 0 0 0 0 0 0 0 0 0 0 0 0 0 0 0 0 0 0 0 0 0 0 0 0 0 0 0 0 0 0 0 0 0 0 0 0 0 0 0 0 0 0
0 0 0 0 0 0 0 0 0 0 0 0 0 0 0 0 0 0 0 0 0 0 0 0 0 0 0 0 0 0 0 0 0 0 0 0 0 0 0 0 0 0 0 0
0 0 0 0 0 0 0 0 0 0 0 0 0 0 0 0 0 0 0 0 0 0 0 0 0 0 0 0 0 0 0 0 0 0 0 0 0 0 0 0 0 0 0 0
0 0 0 0 0 0 0 0 0 0 0 0 0 0 0 0 0 0 0 0 0 0 0 0 0 0 0 0 0 0 0 0 0 0 0 0 0 0 0 0 0 0 0 0
0 0 0 0 0 0 0 0 0 0 0 0 0 0 0 0 0 0 0 0 0 0 0 0 0 0 0 0 0 0 0 0 0 0 0 0 0 0 0 0 0 0 0 0
0 0 0 0 0 0 0 0 0 0 0 0 0 0 0 0 0 0 0 0 0 0 0 0 0 0 0 0 0 0 0 0 0 0 0 0 0 0 0 0 0 0 0 0
0 0 0 0 0 0 0 0 0 0 0 0 0 0 0 0 0 0 0 0 0 0 0 0 0 0 0 0 0 0 0 0 0 0 0 0 0 0 0 0 0 0 0 0
0 0 0 0 0 0 0 0 0 0 0 0 0 0 0 0 0 0 0 0 0 0 0 0 0 0 0 0 0 0 0 0 0 0 0 0 0 0 0 0 0 0 0 0
0 0 0 0 0 0 0 0 0 0 0 0 0 0 0 0 0 0 0 0 0 0 0 0 0 0 0 0 0 0 0 0 0 0 0 0 0 0 0 0 0 0 0 0
0 0 0 0 0 0 0 0 0 0 0 0 0 0 0 0 0 0 0 0 0 0 0 0 0 0 0 0 0 0 0 0 0 0 0 0 0 0 0 0 0 0 0 0
-0 -0 0 0 0 0 0 0 0 0 0 0 0 0 0 0 0 0 0 0 0 0 0 0 0 0 0 0 0 0 0 0 0 0 0 0 0 0 0 0 0 0 0 0
0 0 -0 -0 0 0 0 0 0 0 0 0 0 0 0 0 0 0 0 0 0 0 0 0 0 0 0 0 0 0 0 0 0 0 0 0 0 0 0 0 0 0 0 0
0 0 0 -0 -0 -0 -0 -0 -0 -0 0 0 0 0 0 -0 -0 0 0 0 0 0 0 0 0 0 0 0 0 0 0 0 0 0 0 0 0 0 0 0 0 0 0 0
0 0 0 0 0 -0 -0 -0 -0 -0 -0 -0 -0 0 0 0 0 0 0 0 0 0 0 0 0 0 0 0 0 0 0 0 0 0 0 0 0 0 0 0 0 0 0 0
0 0 0 0 0 0 0 -0 0 0 -0 0 0 0 0 0 0 0 0 0 0 0 0 0 0 0 0 0 0 0 0 0 0 0 0 0 0 0 0 0 0 0 0 0
0 0 0 0 0 0 0 0 0 0 0 0 0 0 0 0 0 0 0 0 0 -0 0 0 0 0 0 0 0 0 0 0 0 0 0 0 0 0 0 0 0 0 0 0
0 0 0 0 0 0 0 0 -0 -0 -0 0 -0 -0 -0 -0 0 0 0 0 0 0 0 0 0 0 0 0 0 0 0 0 0 0 0 0 0 0 0 0 0 0 0 0
0 0 0 0 0 0 0 0 0 0 0 -0 -0 -0 -0 -0 -0 0 0 0 0 0 0 0 0 0 0 0 0 0 0 0 0 0 0 0 0 0 0 0 0 0 0 0
0 0 0 -0 0 0 0 -0 -0 -0 -0 -0 -0 -0 -0 -0 -0 0 0 0 0 0 0 0 0 0 0 0 0 0 0 0 0 0 0 0 0 0 0 0 0 0 0 0
0 0 0 0 0 0 0 -0 -0 -0 -0 -0 -0 -0 -0 -0 -0 -0 0 0 0 0 0 0 0 0 0 0 0 0 0 0 0 0 0 0 0 0 0 0 0 0 0 0
0 0 0 0 0 0 0 0 0 -0 -0 -0 -0 -0 -0 -0 -0 -0 0 0 0 0 0 0 0 0 0 0 0 0 0 0 0 0 0 0 0 0 0 0 0 0 0 0
0 0 0 0 0 0 0 0 0 -0 0 0 0 -0 0 -0 -0 -0 -0 0 0 0 0 0 0 0 0 0 0 0 0 0 0 0 0 0 0 0 0 0 0 0 0 0
0 0 0 0 0 0 0 0 0 0 0 0 0 0 -0 -0 -0 -0 -0 0 0 0 0 0 0 0 0 0 0 0 0 0 0 0 0 0 0 0 0 0 0 0 0 0
Wind_Speed_500mb
11 6 19 25 20 6 9 9 11 9 12 18 30 39 39 43 42 48 66 80 93 96 90 90 86 81 80 78 76 71 68 63 59 52 44 40 36 33 31 27 23 20 15 13
0 18 30 13 15 17 15 16 19 16 15 19 19 40 36 16 29 62 80 78 95 94 91 90 91 89 89 87 83 77 71 67 61 52 46 41 37 35 31 26 23 21 17 16
13 14 10 19 13 16 22 29 12 18 6 8 8 22 16 19 51 71 81 83 92 104 100 100 95 100 98 96 91 82 75 71 63 56 50 45 41 36 31 25 23 21 20 17
15 34 31 11 16 27 32 16 27 20 8 13 12 29 15 13 30 19 65 75 96 103 107 104 101 103 108 100 88 80 74 71 67 62 55 47 41 35 28 24 22 22 20 17
16 8 15 30 36 16 18 15 18 12 10 1 10 8 5 9 15 30 31 80 93 96 95 105 107 106 104 99 87 79 74 71 68 63 55 48 42 33 29 24 23 21 18 19
23 24 7 11 13 19 8 6 12 9 6 10 21 17 48 19 29 28 38 65 75 75 82 90 94 93 101 98 86 78 73 71 67 64 58 51 43 35 30 25 22 20 20 21
10 21 13 18 11 3 8 12 6 7 4 23 22 16 45 16 16 21 29 65 50 58 68 78 86 90 99 100 92 82 75 71 68 66 59 52 45 36 30 25 22 21 21 23
8 24 19 19 40 26 19 19 14 15 13 24 12 20 26 25 54 67 66 59 36 50 61 72 77 86 92 92 93 85 78 71 68 66 61 53 46 38 32 24 23 23 25 28
10 19 12 8 28 27 18 18 19 13 2 4 11 18 23 17 20 22 41 60 68 58 65 71 76 82 85 84 92 89 80 71 68 65 59 54 48 42 32 25 24 27 30 32
9 34 24 23 7 7 20 12 4 1 14 23 20 12 23 10 30 28 19 39 65 66 66 69 76 80 78 78 84 84 76 70 65 62 59 54 51 42 33 27 28 30 33 33
9 15 28 7 12 15 5 17 10 10 14 25 33 24 18 34 33 23 24 61 73 73 72 73 74 73 76 76 80 80 77 72 68 61 57 54 50 41 36 31 31 32 31 33
9 10 19 28 25 26 37 33 41 26 32 11 30 47 5 15 17 19 43 63 65 68 69 68 71 73 75 76 79 82 78 76 69 60 56 53 45 42 38 36 35 34 33 35
17 9 18 28 18 11 9 15 28 22 29 43 38 46 12 23 28 37 31 38 40 56 68 70 72 77 77 80 81 81 81 79 70 62 57 51 48 48 41 39 38 34 36 35
8 10 21 19 10 13 21 46 44 24 23 38 43 61 53 23 16 22 47 60 65 66 79 78 74 78 83 84 82 83 83 79 70 63 58 54 54 49 44 41 39 36 34 33
5 18 26 35 46 45 42 44 47 46 34 21 51 59 54 42 39 47 65 63 51 59 75 79 82 86 86 83 83 83 81 78 70 65 61 58 53 49 45 42 39 36 33 32
12 30 28 35 41 37 41 34 42 48 47 45 46 58 44 67 55 44 55 54 70 69 76 81 85 88 87 86 85 82 81 78 69 66 63 59 57 51 46 42 38 34 33 34
28 24 13 38 40 37 30 29 37 31 30 24 35 28 43 40 53 54 54 66 76 88 88 87 90 94 89 85 85 82 77 74 70 66 63 61 54 52 47 39 36 36 35 37
32 35 18 23 29 30 21 23 35 37 37 17 18 24 28 45 82 104 77 77 85 88 78 80 80 88 87 86 78 75 71 71 72 69 63 57 56 52 42 41 39 38 37 40
11 20 9 8 11 25 27 22 7 2 13 11 13 24 47 68 90 78 56 72 80 83 92 80 72 81 93 85 72 72 70 69 71 69 63 59 57 49 44 41 41 37 37 43
9 18 12 9 7 19 49 15 20 7 14 18 20 29 37 52 24 32 102 124 126 104 91 80 75 87 87 76 69 71 69 70 75 70 62 60 55 47 43 41 36 34 39 36
6 4 9 17 17 15 12 19 35 14 19 38 26 30 27 20 24 78 97 113 120 94 82 82 69 67 73 70 68 67 65 71 68 62 63 56 48 43 40 33 33 36 35 33
5 14 18 10 9 16 14 39 11 21 47 51 42 39 37 52 57 78 89 103 91 62 67 57 59 60 60 61 63 62 64 64 63 62 55 48 43 38 31 31 33 33 32 37
13 16 13 15 15 25 52 48 60 57 63 63 57 66 31 53 53 66 99 99 64 26 51 55 54 53 55 58 52 54 58 61 58 53 47 41 33 29 30 32 33 32 34 36
15 27 13 14 38 40 55 68 69 69 53 60 67 71 53 66 55 55 90 93 82 20 33 45 50 54 57 50 45 39 54 54 50 45 38 32 31 31 30 32 33 33 35 37
17 12 26 33 45 53 69 66 59 64 70 75 69 66 66 65 57 49 59 84 82 39 22 33 41 46 51 53 48 44 45 46 42 34 30 30 29 30 31 33 33 35 36 40
32 29 13 27 50 45 63 68 77 68 72 78 79 71 60 60 61 51 55 65 70 41 34 33 35 42 49 48 39 35 35 36 34 33 32 29 28 30 30 32 34 35 39 34
Wind_Direction_500mb
203 146 215 201 204 167 196 216 231 246 218 183 222 236 246 241 216 231 230 228 228 231 235 228 226 224 223 225 224 224 228 229 230 232 237 247 256 262 265 271 279 281 291 288
219 231 232 199 216 225 241 260 266 270 252 182 238 243 243 211 223 225 232 229 232 234 232 231 226 226 226 226 226 227 230 231 232 234 240 247 253 256 258 265 272 279 282 278
191 237 205 191 224 214 235 234 240 235 286 251 313 268 250 243 232 238 242 241 238 235 233 232 226 225 226 227 229 231 232 233 234 237 239 244 247 251 253 261 269 275 270 275
234 245 258 201 231 203 241 211 231 245 182 248 159 279 228 239 247 220 235 239 239 237 237 237 232 226 226 228 229 232 233 234 235 235 238 242 248 250 253 260 265 261 261 266
249 271 230 244 234 182 237 187 207 217 217 5 207 272 203 249 267 265 241 243 246 239 231 234 233 231 231 228 227 229 230 233 234 234 237 241 245 245 250 255 257 257 253 257
237 259 280 237 239 212 139 105 33 43 95 256 211 182 272 218 224 245 258 265 261 245 238 235 237 231 228 227 224 225 227 230 233 232 235 240 242 244 250 256 259 256 255 263
307 242 213 202 235 347 157 109 271 281 190 243 168 202 241 251 239 221 248 269 267 240 229 224 225 223 224 222 219 220 224 228 229 231 235 238 241 246 250 256 261 261 265 277
263 286 176 209 207 198 204 178 186 211 221 257 175 227 244 219 243 255 246 249 262 230 224 223 225 223 223 221 217 219 223 226 228 230 234 237 239 246 250 254 260 268 273 282
224 255 258 196 215 182 208 214 222 283 160 320 218 274 281 256 261 262 246 243 246 236 223 223 222 223 222 221 218 220 221 224 226 229 233 235 239 242 246 252 262 267 269 277
288 289 242 263 209 247 201 168 186 175 249 251 259 264 243 308 241 246 254 235 236 232 222 220 221 221 222 223 220 220 224 225 225 227 230 235 239 238 240 249 262 267 267 274
278 228 269 206 197 211 197 224 218 179 191 242 258 254 197 228 232 235 235 240 239 230 222 218 218 218 220 220 219 219 221 221 222 226 228 232 231 232 238 250 264 267 267 279
304 289 279 265 245 233 232 229 221 231 241 243 246 257 177 221 263 255 252 254 254 236 224 218 217 216 217 218 219 220 221 220 223 224 226 229 227 231 238 249 265 266 273 281
349 296 308 298 301 6 344 337 309 255 246 243 246 260 207 250 252 254 263 272 260 238 224 221 217 216 217 218 220 221 222 222 221 220 223 224 224 230 240 248 264 267 275 280
295 273 286 285 338 336 306 316 316 349 280 269 247 263 265 271 267 267 263 270 271 248 228 223 218 219 219 220 221 223 223 223 221 220 222 222 223 231 241 250 262 267 275 282
243 265 262 262 276 282 280 270 279 286 293 288 291 292 273 261 252 246 258 270 275 254 232 224 221 222 221 221 223 225 225 222 219 220 220 222 226 232 239 250 259 267 277 285
204 271 270 273 274 273 277 278 256 258 259 274 290 296 308 285 285 261 253 249 254 253 234 224 224 226 225 223 225 224 224 220 219 219 221 221 222 230 238 250 258 269 276 282
257 262 263 273 281 289 280 253 244 248 248 249 263 323 344 355 342 297 255 248 240 239 240 235 232 231 230 228 225 223 223 219 218 219 219 218 224 227 236 249 254 265 273 281
258 260 263 259 283 262 258 252 260 255 261 339 2 353 352 339 328 314 293 260 252 246 238 248 246 237 233 232 225 224 219 218 217 216 215 218 219 225 238 243 256 264 272 282
234 257 282 254 236 291 299 276 8 77 251 278 339 342 335 340 332 308 334 333 314 273 257 250 242 237 233 230 220 218 216 214 214 213 214 215 217 226 237 245 257 263 274 288
329 239 228 257 266 274 265 306 320 213 276 27 348 341 342 340 308 307 315 315 306 300 272 248 240 232 229 224 215 210 211 210 210 210 211 211 218 230 237 250 253 267 283 292
301 301 268 290 287 272 302 25 351 358 319 314 316 314 325 286 283 302 310 310 304 293 267 247 228 215 219 214 205 203 207 209 208 205 203 210 221 231 242 245 259 278 288 297
286 305 287 261 256 272 193 326 350 276 291 292 289 304 290 291 310 321 322 324 308 281 243 216 203 201 203 200 195 199 203 203 197 198 205 212 226 230 232 251 269 281 290 294
257 206 258 211 244 278 293 297 297 304 297 288 283 303 293 316 306 319 323 329 322 250 194 181 183 181 184 187 193 194 194 193 195 199 209 215 217 224 240 258 272 283 287 293
242 248 246 291 264 262 280 291 291 294 291 307 298 305 293 316 312 314 318 322 328 275 179 171 173 173 173 181 184 189 187 190 197 203 203 207 217 228 247 264 273 278 287 293
255 270 271 268 275 288 279 278 296 302 301 305 308 305 300 290 295 310 317 314 319 291 227 177 173 172 173 173 175 181 188 194 195 198 205 213 227 243 255 264 270 280 287 292
238 265 256 267 278 282 280 291 295 295 296 299 299 303 303 297 288 295 301 308 299 284 235 198 183 180 178 175 178 183 191 195 196 203 214 230 243 250 258 266 274 280 289 292
Wind_Speed_850mb
11 6 19 25 20 6 9 9 11 9 12 18 30 39 39 43 42 48 66 80 93 96 90 90 86 81 80 78 76 71 68 63 59 52 44 40 36 33 31 27 23 20 15 13
0 18 30 13 15 17 15 16 19 16 15 19 19 40 36 16 29 62 80 78 95 94 91 90 91 89 89 87 83 77 71 67 61 52 46 41 37 35 31 26 23 21 17 16
13 14 10 19 13 16 22 29 12 18 6 8 8 22 16 19 51 71 81 83 92 104 100 100 95 100 98 96 91 82 75 71 63 56 50 45 41 36 31 25 23 21 20 17
15 34 31 11 16 27 32 16 27 20 8 13 12 29 15 13 30 19 65 75 96 103 107 104 101 103 108 100 88 80 74 71 67 62 55 47 41 35 28 24 22 22 20 17
16 8 15 30 36 16 18 15 18 12 10 1 10 8 5 9 15 30 31 80 93 96 95 105 107 106 104 99 87 79 74 71 68 63 55 48 42 33 29 24 23 21 18 19
23 24 7 11 13 19 8 6 12 9 6 10 21 17 48 19 29 28 38 65 75 75 82 90 94 93 101 98 86 78 73 71 67 64 58 51 43 35 30 25 22 20 20 21
10 21 13 18 11 3 8 12 6 7 4 23 22 16 45 16 16 21 29 65 50 58 68 78 86 90 99 100 92 82 75 71 68 66 59 52 45 36 30 25 22 21 21 23
8 24 19 19 40 26 19 19 14 15 13 24 12 20 26 25 54 67 66 59 36 50 61 72 77 86 92 92 93 85 78 71 68 66 61 53 46 38 32 24 23 23 25 28
10 19 12 8 28 27 18 18 19 13 2 4 11 18 23 17 20 22 41 60 68 58 65 71 76 82 85 84 92 89 80 71 68 65 59 54 48 42 32 25 24 27 30 32
9 34 24 23 7 7 20 12 4 1 14 23 20 12 23 10 30 28 19 39 65 66 66 69 76 80 78 78 84 84 76 70 65 62 59 54 51 42 33 27 28 30 33 33
9 15 28 7 12 15 5 17 10 10 14 25 33 24 18 34 33 23 24 61 73 73 72 73 74 73 76 76 80 80 77 72 68 61 57 54 50 41 36 31 31 32 31 33
9 10 19 28 25 26 37 33 41 26 32 11 30 47 5 15 17 19 43 63 65 68 69 68 71 73 75 76 79 82 78 76 69 60 56 53 45 42 38 36 35 34 33 35
17 9 18 28 18 11 9 15 28 22 29 43 38 46 12 23 28 37 31 38 40 56 68 70 72 77 77 80 81 81 81 79 70 62 57 51 48 48 41 39 38 34 36 35
8 10 21 19 10 13 21 46 44 24 23 38 43 61 53 23 16 22 47 60 65 66 79 78 74 78 83 84 82 83 83 79 70 63 58 54 54 49 44 41 39 36 34 33
5 18 26 35 46 45 42 44 47 46 34 21 51 59 54 42 39 47 65 63 51 59 75 79 82 86 86 83 83 83 81 78 70 65 61 58 53 49 45 42 39 36 33 32
12 30 28 35 41 37 41 34 42 48 47 45 46 58 44 67 55 44 55 54 70 69 76 81 85 88 87 86 85 82 81 78 69 66 63 59 57 51 46 42 38 34 33 34
28 24 13 38 40 37 30 29 37 31 30 24 35 28 43 40 53 54 54 66 76 88 88 87 90 94 89 85 85 82 77 74 70 66 63 61 54 52 47 39 36 36 35 37
32 35 18 23 29 30 21 23 35 37 37 17 18 24 28 45 82 104 77 77 85 88 78 80 80 88 87 86 78 75 71 71 72 69 63 57 56 52 42 41 39 38 37 40
11 20 9 8 11 25 27 22 7 2 13 11 13 24 47 68 90 78 56 72 80 83 92 80 72 81 93 85 72 72 70 69 71 69 63 59 57 49 44 41 41 37 37 43
9 18 12 9 7 19 49 15 20 7 14 18 20 29 37 52 24 32 102 124 126 104 91 80 75 87 87 76 69 71 69 70 75 70 62 60 55 47 43 41 36 34 39 36
6 4 9 17 17 15 12 19 35 14 19 38 26 30 27 20 24 78 97 113 120 94 82 82 69 67 73 70 68 67 65 71 68 62 63 56 48 43 40 33 33 36 35 33
5 14 18 10 9 16 14 39 11 21 47 51 42 39 37 52 57 78 89 103 91 62 67 57 59 60 60 61 63 62 64 64 63 62 55 48 43 38 31 31 33 33 32 37
13 16 13 15 15 25 52 48 60 57 63 63 57 66 31 53 53 66 99 99 64 26 51 55 54 53 55 58 52 54 58 61 58 53 47 41 33 29 30 32 33 32 34 36
15 27 13 14 38 40 55 68 69 69 53 60 67 71 53 66 55 55 90 93 82 20 33 45 50 54 57 50 45 39 54 54 50 45 38 32 31 31 30 32 33 33 35 37
17 12 26 33 45 53 69 66 59 64 70 75 69 66 66 65 57 49 59 84 82 39 22 33 41 46 51 53 48 44 45 46 42 34 30 30 29 30 31 33 33 35 36 40
32 29 13 27 50 45 63 68 77 68 72 78 79 71 60 60 61 51 55 65 70 41 34 33 35 42 49 48 39 35 35 36 34 33 32 29 28 30 30 32 34 35 39 34
Wind_Direction_850mb
203 146 215 201 204 167 196 216 231 246 218 183 222 236 246 241 216 231 230 228 228 231 235 228 226 224 223 225 224 224 228 229 230 232 237 247 256 262 265 271 279 281 291 288
219 231 232 199 216 225 241 260 266 270 252 182 238 243 243 211 223 225 232 229 232 234 232 231 226 226 226 226 226 227 230 231 232 234 240 247 253 256 258 265 272 279 282 278
191 237 205 191 224 214 235 234 240 235 286 251 313 268 250 243 232 238 242 241 238 235 233 232 226 225 226 227 229 231 232 233 234 237 239 244 247 251 253 261 269 275 270 275
234 245 258 201 231 203 241 211 231 245 182 248 159 279 228 239 247 220 235 239 239 237 237 237 232 226 226 228 229 232 233 234 235 235 238 242 248 250 253 260 265 261 261 266
249 271 230 244 234 182 237 187 207 217 217 5 207 272 203 249 267 265 241 243 246 239 231 234 233 231 231 228 227 229 230 233 234 234 237 241 245 245 250 255 257 257 253 257
237 259 280 237 239 212 139 105 33 43 95 256 211 182 272 218 224 245 258 265 261 245 238 235 237 231 228 227 224 225 227 230 233 232 235 240 242 244 250 256 259 256 255 263
307 242 213 202 235 347 157 109 271 281 190 243 168 202 241 251 239 221 248 269 267 240 229 224 225 223 224 222 219 220 224 228 229 231 235 238 241 246 250 256 261 261 265 277
263 286 176 209 207 198 204 178 186 211 221 257 175 227 244 219 243 255 246 249 262 230 224 223 225 223 223 221 217 219 223 226 228 230 234 237 239 246 250 254 260 268 273 282
224 255 258 196 215 182 208 214 222 283 160 320 218 274 281 256 261 262 246 243 246 236 223 223 222 223 222 221 218 220 221 224 226 229 233 235 239 242 246 252 262 267 269 277
288 289 242 263 209 247 201 168 186 175 249 251 259 264 243 308 241 246 254 235 236 232 222 220 221 221 222 223 220 220 224 225 225 227 230 235 239 238 240 249 262 267 267 274
278 228 269 206 197 211 197 224 218 179 191 242 258 254 197 228 232 235 235 240 239 230 222 218 218 218 220 220 219 219 221 221 222 226 228 232 231 232 238 250 264 267 267 279
304 289 279 265 245 233 232 229 221 231 241 243 246 257 177 221 263 255 252 254 254 236 224 218 217 216 217 218 219 220 221 220 223 224 226 229 227 231 238 249 265 266 273 281
349 296 308 298 301 6 344 337 309 255 246 243 246 260 207 250 252 254 263 272 260 238 224 221 217 216 217 218 220 221 222 222 221 220 223 224 224 230 240 248 264 267 275 280
295 273 286 285 338 336 306 316 316 349 280 269 247 263 265 271 267 267 263 270 271 248 228 223 218 219 219 220 221 223 223 223 221 220 222 222 223 231 241 250 262 267 275 282
243 265 262 262 276 282 280 270 279 286 293 288 291 292 273 261 252 246 258 270 275 254 232 224 221 222 221 221 223 225 225 222 219 220 220 222 226 232 239 250 259 267 277 285
204 271 270 273 274 273 277 278 256 258 259 274 290 296 308 285 285 261 253 249 254 253 234 224 224 226 225 223 225 224 224 220 219 219 221 221 222 230 238 250 258 269 276 282
257 262 263 273 281 289 280 253 244 248 248 249 263 323 344 355 342 297 255 248 240 239 240 235 232 231 230 228 225 223 223 219 218 219 219 218 224 227 236 249 254 265 273 281
258 260 263 259 283 262 258 252 260 255 261 339 2 353 352 339 328 314 293 260 252 246 238 248 246 237 233 232 225 224 219 218 217 216 215 218 219 225 238 243 256 264 272 282
234 257 282 254 236 291 299 276 8 77 251 278 339 342 335 340 332 308 334 333 314 273 257 250 242 237 233 230 220 218 216 214 214 213 214 215 217 226 237 245 257 263 274 288
329 239 228 257 266 274 265 306 320 213 276 27 348 341 342 340 308 307 315 315 306 300 272 248 240 232 229 224 215 210 211 210 210 210 211 211 218 230 237 250 253 267 283 292
301 301 268 290 287 272 302 25 351 358 319 314 316 314 325 286 283 302 310 310 304 293 267 247 228 215 219 214 205 203 207 209 208 205 203 210 221 231 242 245 259 278 288 297
286 305 287 261 256 272 193 326 350 276 291 292 289 304 290 291 310 321 322 324 308 281 243 216 203 201 203 200 195 199 203 203 197 198 205 212 226 230 232 251 269 281 290 294
257 206 258 211 244 278 293 297 297 304 297 288 283 303 293 316 306 319 323 329 322 250 194 181 183 181 184 187 193 194 194 193 195 199 209 215 217 224 240 258 272 283 287 293
242 248 246 291 264 262 280 291 291 294 291 307 298 305 293 316 312 314 318 322 328 275 179 171 173 173 173 181 184 189 187 190 197 203 203 207 217 228 247 264 273 278 287 293
255 270 271 268 275 288 279 278 296 302 301 305 308 305 300 290 295 310 317 314 319 291 227 177 173 172 173 173 175 181 188 194 195 198 205 213 227 243 255 264 270 280 287 292
238 265 256 267 278 282 280 291 295 295 296 299 299 303 303 297 288 295 301 308 299 284 235 198 183 180 178 175 178 183 191 195 196 203 214 230 243 250 258 266 274 280 289 292